COSMOS 2458 (734) (36113 NORAD) Tracking and Keplerian Element Data

This shows tracking and keplerian element data for the satellite.

Feedback or suggestion? Click here.




ElementValue
Catalog36113
NameCOSMOS 2458 (734)
Epoch Orbit6685
Epoch Day198.654741
Epoch Year2018
RAAN169.9813
Inclination64.1766
Eccentricity0.0003027
Argument of Perigee317.0055
Mean Anonmoly154.4085
Mean Motion2.13096769
Decay Rate6.3E-07
L11 36113U 09070C 18198.65474100 .00000063 00000-0 10000-3 0 9997
L22 36113 64.1766 169.9813 0003027 317.0055 154.4085 2.13096769 66851

Live tracking and technical data element details for COSMOS 2458 (734) (NORAD 36113). COSMOS 2458 (734) can be tracked NOW for your location showing map with azimuth and elevation plus other details from your city location.

Track the satellite on the map from your city or location and see movement details for azimuth, elevation, latitude, longitude, range, height, and movement on the map or in text.







IsCatalogInMostPopularTable: catalog: 36113, numindb: 41
Update: records affected: 1



GetName: 36113 COSMOS 2458 (734)

Hit Count: updated at: Thu, 19 Jul 2018 21:19:28 GMT